CET,Max TemperatureF,Mean TemperatureF,Min TemperatureF,Max Dew PointF,MeanDew PointF,Min DewpointF,Max Humidity, Mean Humidity, Min Humidity, Max Sea Level PressureIn, Mean Sea Level PressureIn, Min Sea Level PressureIn, Max VisibilityMiles, Mean VisibilityMiles, Min VisibilityMiles, Max Wind SpeedMPH, Mean Wind SpeedMPH, Max Gust SpeedMPH,PrecipitationIn, CloudCover, Events, WindDirDegrees
2011-11-1,69,64,59,63,56,52,88,75,53,30.06,30.03,30.01,6,6,6,7,4,,0.00,3,,273
2011-11-2,71,64,57,61,56,50,83,76,64,30.06,30.04,30.01,6,6,6,14,6,,0.00,3,,206
2011-11-3,71,64,57,63,57,54,88,75,60,30.01,29.95,29.89,6,6,6,25,12,,0.00,2,,105
2011-11-4,69,68,68,63,62,59,83,79,68,29.89,29.81,29.77,6,6,5,24,20,,0.00,5,,125
2011-11-5,69,64,59,64,60,54,88,81,73,29.77,29.64,29.50,6,5,2,33,21,48,0.00,4,Rain-Thunderstorm,134
2011-11-6,60,60,59,55,53,50,82,78,72,29.83,29.73,29.65,6,6,2,12,6,,0.00,5,Rain-Thunderstorm,162
2011-11-7,68,64,59,59,56,54,88,77,64,29.95,29.90,29.86,6,6,5,16,9,,0.00,3,Rain,159
2011-11-8,69,62,55,57,50,45,88,64,40,30.04,30.01,29.98,6,6,4,20,9,,0.00,3,Rain-Thunderstorm,168
2011-11-9,69,62,55,64,55,48,88,76,49,30.09,30.07,30.06,6,6,6,8,4,,0.00,3,Rain-Thunderstorm,302
2011-11-10,69,60,50,59,53,45,94,78,46,30.09,30.06,30.04,6,6,5,10,6,,0.00,1,,313
2011-11-11,69,60,51,61,53,45,94,81,40,30.18,30.09,30.04,6,5,0,9,6,,0.00,2,Fog,319
2011-11-12,69,60,51,59,51,48,88,73,46,30.30,30.26,30.21,6,6,6,12,6,,0.00,1,,304
2011-11-13,66,58,50,55,51,46,94,81,49,30.33,30.30,30.27,6,6,5,13,5,,0.00,2,,320
2011-11-14,66,55,44,54,44,36,93,68,32,30.30,30.20,30.12,6,6,4,17,7,,0.00,2,,42
2011-11-15,66,58,50,52,45,41,82,63,42,30.09,30.00,29.95,6,6,6,16,8,,0.00,3,,80
2011-11-16,66,58,51,55,49,43,88,74,52,30.01,29.96,29.92,6,6,6,14,6,,0.00,5,,6
2011-11-17,66,58,50,55,48,45,82,70,52,30.18,30.10,30.04,6,6,6,14,8,,0.00,3,,340
2011-11-18,66,58,51,55,52,48,94,78,59,30.21,30.18,30.15,6,6,6,16,7,,0.00,3,,29
2011-11-19,64,60,57,59,54,52,94,78,64,30.15,30.09,30.04,6,6,1,22,13,,0.00,5,Rain-Thunderstorm,96
2011-11-20,68,62,55,61,55,48,94,78,64,30.09,30.05,30.01,6,6,6,17,7,,0.00,3,Rain-Thunderstorm,79
2011-11-21,66,65,64,63,58,54,88,78,68,30.01,29.89,29.71,6,6,2,34,21,46,0.00,4,Rain-Thunderstorm,113
2011-11-22,68,64,59,61,58,52,88,81,72,29.83,29.71,29.65,6,6,5,34,16,47,0.00,3,Rain-Thunderstorm,121
2011-11-23,64,60,57,55,54,52,88,80,64,29.95,29.86,29.80,6,6,4,12,6,,0.00,6,Rain,299
2011-11-24,69,62,55,57,54,52,88,79,60,30.24,30.14,30.04,6,6,6,10,7,,0.00,2,Rain,285
2011-11-25,68,58,48,59,51,45,94,79,52,30.30,30.26,30.24,6,6,6,8,5,,0.00,1,Thunderstorm,309
2011-11-26,66,56,46,59,50,41,94,80,59,30.33,30.29,30.27,6,6,5,9,6,,0.00,1,,304
2011-11-27,66,57,48,54,48,43,87,74,59,30.36,30.31,30.27,6,6,6,15,6,,0.00,2,,8
2011-11-28,64,60,55,59,53,50,88,77,68,30.27,30.21,30.18,6,6,4,14,6,,0.00,4,Rain,64
2011-11-29,68,60,53,55,50,48,88,72,49,30.21,30.19,30.15,6,6,6,10,6,,0.00,2,,351
2011-11-30,68,58,48,57,49,43,94,77,43,30.36,30.31,30.24,6,6,6,9,6,,0.00,1,,306